User: anonymous   Login
Location: Unspecified
(0.0000°N, 0.0000°E)
Time: 00:01:20
(UTC+02:00)
Language:

AO-40 - Orbit

View from above orbital plane
View from above orbital plane
View from above satellite
View from above satellite

Ground track
Ground track

The orbit data is extracted from the following two-line orbital elements,

1 26609U 00072B   16273.52784598 -.00000132  00000-0  00000+0 0  9995
2 26609   7.1974 279.9024 7968233  25.4612 358.5279  1.25587506 73068
Epoch (UTC): 29 September 2016 12:40:05
Eccentricity: 0.7968233
inclination: 7.1974°
perigee height: 995 km
apogee height: 58825 km
right ascension of ascending node: 279.9024°
argument of perigee: 25.4612°
revolutions per day: 1.25587506
mean anomaly at epoch: 358.5279°
orbit number at epoch: 7306

The dashed part of the orbit path shows where the satellite is in the earth's shadow,  

DLR